Location: Kra?nica
(53.4833°N, 14.6167°E)
Time: 15:37:08
(UTC+00:00)

ESTCUBE 1 - Visible Passes

Search period start: 04 October 2024 00:00
Search period end: 14 October 2024 00:00
Orbit: 632 x 643 km, 97.8° (Epoch: 04 October)

Date Brightness Start Highest point End Pass type
(mag) Time Alt. Az. Time Alt. Az. Time Alt. Az.
04 Oct ? 18:32:42 15° NE 18:32:42 15° NE 18:34:48 10° NNE visible
04 Oct ? 20:10:14 29° NNW 20:10:14 29° NNW 20:12:28 10° NNW visible
05 Oct ? 18:55:40 20° NE 18:55:40 20° NE 18:57:56 10° N visible
05 Oct ? 20:33:12 24° NNW 20:33:12 24° NNW 20:35:03 10° NNW visible
06 Oct ? 19:18:37 24° NNE 19:18:37 24° NNE 19:20:51 10° N visible
06 Oct ? 20:56:09 18° NW 20:56:09 18° NW 20:57:29 10° NNW visible
07 Oct ? 19:41:33 25° N 19:41:33 25° N 19:43:37 10° N visible
07 Oct ? 21:19:06 13° NW 21:19:06 13° NW 21:19:44 10° NW visible
08 Oct ? 18:26:56 14° NE 18:26:56 14° NE 18:28:24 10° NNE visible
08 Oct ? 20:04:28 24° N 20:04:28 24° N 20:06:16 10° NNW visible
09 Oct ? 18:49:51 17° NNE 18:49:51 17° NNE 18:51:33 10° N visible
09 Oct ? 20:27:22 20° NNW 20:27:22 20° NNW 20:28:47 10° NNW visible
10 Oct ? 19:12:43 20° NNE 19:12:43 20° NNE 19:14:26 10° N visible
10 Oct ? 20:50:14 16° NNW 20:50:14 16° NNW 20:51:11 10° NNW visible
11 Oct ? 19:35:35 21° N 19:35:35 21° N 19:37:09 10° N visible
11 Oct ? 21:13:06 12° NW 21:13:06 12° NW 21:13:25 10° NNW visible
12 Oct ? 18:20:53 12° NE 18:20:53 12° NE 18:21:38 10° NNE visible
12 Oct ? 19:58:25 19° N 19:58:25 19° N 19:59:46 10° N visible
13 Oct ? 18:43:42 14° NNE 18:43:42 14° NNE 18:44:51 10° NNE visible
13 Oct ? 20:21:14 17° NNW 20:21:14 17° NNW 20:22:15 10° NNW visible
